Location: Maiden
(35.5760°N, 81.2120°W)
Time: 03:17:01
(UTC-04:00)

Cosmos 1726 - Pass Details

Date: 14 June 2018
Orbit: 485 x 501 km, 82.5° (Epoch: 21 October)

Event Time Altitude Azimuth Distance (km) Brightness Sun altitude
Rises 23:07:18 0° 9° (N) 2,593 6.5 -22.7°
Reaches altitude 10° 23:09:48 10° 25° (NNE) 1,708 5.2 -23.0°
Enters shadow 23:11:34 19° 51° (NE) 1,254 4.2 -23.2°
